Simultaneous Nadir Overpasses (SNOs) Predictions

Prediction of SNOs between AQUA and NOAA-19 Satellite Orbit:

Table of predicted SNOs for the next 14.0 days since TLE Epoch: 6/27/2015
Index Date (AQUA) Time (AQUA) Lat,Lon (AQUA) SZA (AQUA ) Date (NOAA-19) Time (NOAA-19) Lat,Lon (NOAA-19) SZA (NOAA-19 ) Distance(km) Time Diff (sec)
1 06/28/2015 07:25:38 80.15, 36.98 58.48 06/28/2015 07:24:38 80.15, 36.97 58.50 0.25 60
2 06/28/2015 08:15:01 -80.05,-154.55 121.68 06/28/2015 08:15:31 -80.06,-154.62 121.68 1.49 30
3 06/30/2015 12:59:18 -80.12, 133.79 121.44 06/30/2015 12:58:54 -80.12, 133.83 121.44 1.10 24
4 06/30/2015 13:48:41 79.98, -57.38 58.33 06/30/2015 13:49:54 79.98, -57.23 58.29 2.87 73
5 07/02/2015 18:32:59 80.10,-129.41 58.68 07/02/2015 18:33:19 80.10,-129.57 58.70 3.02 20
6 07/04/20
